DELTA 1 DEB, 10708

Orbit data source: Space-Track

DELTA 1 DEB, 10708 is space debris in SSO originally from a launch on Thu, 29 Jul 1976 UTC launched from the Air Force Western Test Range (AFWTR). Debris objects in space refer to the collection of defunct objects orbiting the Earth. Examples of debris include non-operational satellites, rocket bodies, and fragments generated from explosions, collisions, or faulty payload assembly.

Loading next visibility...
DELTA 1 DEB details
Identifier
10708, 1976-077AD
Orbit
SSO
Last TLE update12 hours ago
Origin
Flag of USGSFC (US)
ManufacturerUnknown
MissionSpacecraft
Bus & MotorUnknown
MassUnknown
Launch date (UTC)
1976-07-29 (48 years ago)
Launch vehicleUnknown
Launch site
Air Force Western Test Range (AFWTR)
Object type
Payload
Rocket body
Debris
Shape & HBRUnknown
Radar Cross SectionSmall (<0.1 m²)

Expand to show TLE details & history

TLE from 12 hours ago
0 DELTA 1 DEB
1 10708U 76077AD  25018.54733720  .00000529  00000-0  30145-2 0  9991
2 10708 101.2234  38.9955 0163350 313.2365 176.4009 12.62942481222867
Epoch: 2025-01-18T13:08Z
Definitive object data (Epoch: 2025-01-18T13:08:09.934Z)
Latitude49.03908°
Longitude-83.09256°
Altitude1,545.362 km
Speed7.04 km/s
True Right ascension15h 28m 34s
True Declination48° 53' 09"
Sunlit
Object was in daylight at TLE epoch
Visualization TLE readout
Latitude-15.38038°
Longitude-98.88258°
Altitude1,472.314 km
Speed7.101 km/s
Apparent Right ascension14h 10m 48s
Apparent Declination-26° 17' 42"
Sunlit
Object is in daylight
Visualization observer readout
Local Sidereal Time01:48:13
Azimuth339.239° N
Elevation-75.589°
Doppler factor1
Orbital elements
Apogee altitude1,535.513 km
Perigee altitude1,281.129 km
Semi-major axis7,786.458 km
Eccentricity0.016335
Inclination101.2234°
RAAN38.9955°
Arg. of periapsis313.2365°
True anomaly176.51606°
Mean anomaly176.4009°
Eccentric anomaly176.45871°
Mean motion3.15888 °/min
BSTAR0.0030145
Orbital period113.96 mins
Loading maneuver chart data...
Loading historical data...
Loading historical data...
Loading historical data...
Loading historical data...
Loading historical data...
Loading historical data...
Loading historical data...

DELTA 1 DEB Visibility forecast

Observer location: undefined°, undefined

Span
Click to sort rows by Start time (UTC) header in descending order
Start Az.
Max El. time (UTC)
Max El. Az.
Max El.
End time (UTC)
End Az.
15 mins2025-01-19 01:49:59.181Z190.734° SSW2025-01-19 01:56:59.181Z256.584° W34.922°2025-01-19 02:04:59.181Z331.221° NNW
16 mins2025-01-19 13:46:59.181Z23.928° NE2025-01-19 13:54:59.181Z115.94° SE42.078°2025-01-19 14:02:59.181Z184.647° SSW
13 mins2025-01-19 15:39:59.181Z354.081° N2025-01-19 15:45:59.181Z302.342° NW27.769°2025-01-19 15:52:59.181Z245.948° WSW
7 mins2025-01-19 22:53:59.181Z70.069° E2025-01-19 22:56:59.181Z45.521° ENE15.656°2025-01-19 23:00:59.181Z15.832° NNE
13 mins2025-01-20 00:40:59.181Z149.005° SSE2025-01-20 00:46:59.181Z77.192° E43.514°2025-01-20 00:53:59.181Z348.657° N
|